PROFILE

 METAR AND TAF INFORMATION
ADDS - METARS form results

(0822 UTC 19 August 2019)
http://aviationweather.gov/metar/data/
 
LFMN 190800Z 25003KT 190V310 9999 FEW020 26/20 Q1016 NOSIG
LFMN 190730Z 32004KT 290V350 9999 FEW020 25/18 Q1016 NOSIG
TAF LFMN 190200Z 1903/2009 VRB03KT 9999 FEW020 PROB30 TEMPO 1903/1907 33010KT BKN014 TEMPO 1909/1917 15010KT TEMPO 1923/2007 33010KT 

 AIRPORT MAP

 RUNWAY INFORMATION
Runway 04L Runway length 8995 ft Runway width 148 ft
Runway elevation 10 ft Runway displaced threshold 0 ft Runway heading 45
Runway 22R Runway length 8995 ft Runway width 148 ft
Runway elevation 10 ft Runway displaced threshold 575 ft Runway heading 225
Runway 04R Runway length 9712 ft Runway width 148 ft
Runway elevation 10 ft Runway displaced threshold 0 ft Runway heading 45
Runway 22L Runway length 9712 ft Runway width 148 ft
Runway elevation 12 ft Runway displaced threshold 0 ft Runway heading 225

 AIRPORT FREQUENCIES
Type A/D Name NICE APP Frequency 124.175 MHZ
Type ATIS Name NICE ATIS Frequency 129.6 MHZ
Type GND Name NICE GND Frequency 121.775 MHZ
Type TWR Name NICE TWR Frequency 118.7 MHZ

 AIRPORT NEAR NAVIGATION AIDS
Type VOR-DME Name Nice Cote D Azur Frequency 109650 KHZ
Type VOR-DME Name Cagnes Sur Mer Frequency 109200 KHZ
Type NDB Name Nice Frequency 399 KHZ
Type VOR-DME Name Nice Frequency 112400 KHZ